QPF
0.00 0.00 0.00 0.00 0.00 0.00 0.00 0.00 0.00 0.00 0.01 0.01 0.01 0.02 0.01 0.02 0.03 0.06 0.06 0.04 0.05 0.06 0.07 0.10 0.15 0.12 0.11 0.10 0.09 0.08 0.07 0.08 0.08 0.08 0.08 0.10 0.12 0.12 0.13 0.13 0.11 0.10 0.10 0.08 0.07 0.06 0.05 0.03 0.03
0.00 0.00 0.00 0.00 0.00 0.00 0.00 0.00 0.01 0.00 0.00 0.00 0.00 0.00 0.00 0.01 0.04 0.04 0.04 0.03 0.04 0.04 0.05 0.06 0.11 0.10 0.10 0.09 0.07 0.06 0.07 0.06 0.06 0.06 0.08 0.14 0.24 0.22 0.16 0.10 0.07 0.08 0.08 0.07 0.07 0.06 0.05 0.04 0.03
0.00 0.00 0.00 0.00 0.00 0.00 0.00 0.00 0.00 0.00 0.00 0.00 0.00 0.00 0.01 0.03 0.05 0.07 0.06 0.04 0.04 0.04 0.06 0.07 0.10 0.11 0.08 0.06 0.05 0.06 0.06 0.05 0.06 0.05 0.07 0.12 0.18 0.15 0.10 0.06 0.06 0.09 0.08 0.07 0.07 0.05 0.04 0.04 0.03
0.00 0.00 0.00 0.00 0.00 0.00 0.00 0.00 0.00 0.00 0.00 0.01 0.00 0.00 0.02 0.04 0.05 0.05 0.06 0.03 0.04 0.04 0.05 0.05 0.07 0.08 0.07 0.05 0.04 0.05 0.05 0.05 0.05 0.05 0.06 0.07 0.09 0.09 0.08 0.06 0.07 0.10 0.08 0.07 0.07 0.05 0.05 0.05 0.03
0.00 0.00 0.00 0.00 0.00 0.00 0.00 0.00 0.00 0.01 0.00 0.01 0.01 0.01 0.02 0.04 0.03 0.04 0.04 0.03 0.02 0.03 0.03 0.03 0.06 0.07 0.06 0.06 0.04 0.04 0.05 0.05 0.05 0.05 0.05 0.05 0.05 0.06 0.06 0.07 0.07 0.07 0.05 0.06 0.07 0.05 0.04 0.03 0.02
0.00 0.00 0.00 0.00 0.00 0.00 0.00 0.00 0.00 0.00 0.00 0.01 0.01 0.01 0.03 0.04 0.03 0.03 0.02 0.02 0.02 0.02 0.03 0.03 0.05 0.07 0.05 0.04 0.05 0.05 0.05 0.05 0.05 0.05 0.04 0.04 0.03 0.03 0.04 0.06 0.05 0.04 0.03 0.04 0.05 0.04 0.03 0.02 0.02
0.00 0.00 0.00 0.00 0.00 0.00 0.00 0.00 0.00 0.00 0.00 0.01 0.01 0.01 0.02 0.02 0.02 0.02 0.02 0.02 0.02 0.03 0.04 0.04 0.05 0.07 0.05 0.04 0.05 0.05 0.04 0.03 0.03 0.03 0.04 0.04 0.03 0.02 0.02 0.04 0.03 0.02 0.02 0.02 0.03 0.05 0.04 0.03 0.03
0.00 0.00 0.00 0.00 0.00 0.00 0.00 0.00 0.00 0.00 0.00 0.01 0.01 0.01 0.02 0.02 0.02 0.02 0.02 0.02 0.02 0.03 0.04 0.04 0.05 0.07 0.07 0.06 0.04 0.05 0.04 0.04 0.04 0.03 0.03 0.03 0.03 0.02 0.02 0.03 0.02 0.02 0.03 0.03 0.04 0.08 0.08 0.05 0.03
0.00 0.00 0.00 0.00 0.00 0.00 0.00 0.00 0.00 0.00 0.00 0.00 0.01 0.01 0.01 0.01 0.01 0.01 0.01 0.02 0.02 0.02 0.04 0.04 0.05 0.05 0.05 0.05 0.03 0.04 0.05 0.05 0.04 0.03 0.03 0.03 0.02 0.01 0.02 0.03 0.04 0.04 0.05 0.05 0.10 0.13 0.08 0.05 0.03
0.00 0.00 0.00 0.00 0.00 0.00 0.00 0.00 0.00 0.00 0.00 0.00 0.00 0.01 0.01 0.01 0.01 0.01 0.01 0.02 0.02 0.02 0.03 0.04 0.04 0.04 0.04 0.03 0.03 0.04 0.04 0.04 0.03 0.02 0.02 0.01 0.01 0.01 0.01 0.02 0.03 0.04 0.05 0.05 0.10 0.15 0.10 0.05 0.04
0.00 0.00 0.00 0.00 0.00 0.00 0.00 0.00 0.00 0.00 0.00 0.00 0.01 0.01 0.01 0.01 0.02 0.02 0.02 0.01 0.02 0.02 0.03 0.04 0.04 0.03 0.02 0.02 0.02 0.02 0.03 0.03 0.02 0.02 0.03 0.02 0.02 0.01 0.02 0.02 0.02 0.02 0.02 0.04 0.06 0.08 0.08 0.05 0.05
0.00 0.00 0.00 0.00 0.00 0.00 0.00 0.00 0.00 0.00 0.00 0.00 0.00 0.00 0.01 0.02 0.03 0.04 0.05 0.03 0.02 0.03 0.04 0.04 0.02 0.02 0.02 0.01 0.02 0.02 0.01 0.02 0.02 0.01 0.01 0.03 0.04 0.03 0.02 0.03 0.03 0.02 0.02 0.04 0.03 0.05 0.06 0.05 0.05
0.00 0.00 0.00 0.00 0.00 0.00 0.00 0.00 0.00 0.00 0.00 0.00 0.00 0.00 0.00 0.01 0.03 0.06 0.09 0.05 0.04 0.04 0.05 0.04 0.02 0.03 0.03 0.03 0.02 0.01 0.01 0.02 0.02 0.02 0.01 0.02 0.04 0.07 0.05 0.04 0.04 0.03 0.03 0.03 0.03 0.04 0.06 0.07 0.06
0.00 0.00 0.00 0.00 0.00 0.00 0.00 0.00 0.00 0.00 0.00 0.00 0.00 0.00 0.00 0.00 0.00 0.03 0.07 0.04 0.05 0.06 0.07 0.05 0.03 0.03 0.03 0.04 0.04 0.03 0.02 0.03 0.02 0.02 0.02 0.02 0.04 0.07 0.06 0.05 0.06 0.05 0.04 0.04 0.05 0.05 0.07 0.07 0.05
0.00 0.00 0.00 0.00 0.00 0.00 0.00 0.00 0.00 0.00 0.00 0.00 0.00 0.00 0.01 0.00 0.00 0.03 0.08 0.04 0.02 0.05 0.07 0.06 0.04 0.04 0.03 0.03 0.04 0.02 0.01 0.02 0.02 0.03 0.03 0.04 0.04 0.07 0.07 0.06 0.07 0.07 0.07 0.07 0.07 0.06 0.07 0.06 0.05
0.00 0.00 0.00 0.00 0.00 0.00 0.00 0.00 0.00 0.00 0.00 0.00 0.00 0.00 0.01 0.01 0.00 0.02 0.07 0.05 0.01 0.03 0.06 0.04 0.03 0.03 0.02 0.03 0.04 0.03 0.03 0.02 0.03 0.03 0.04 0.05 0.06 0.08 0.09 0.08 0.07 0.08 0.06 0.07 0.10 0.09 0.08 0.07 0.07
0.00 0.00 0.00 0.00 0.00 0.00 0.00 0.00 0.00 0.00 0.00 0.00 0.00 0.00 0.00 0.01 0.01 0.01 0.03 0.04 0.02 0.02 0.03 0.03 0.02 0.02 0.01 0.02 0.03 0.03 0.04 0.04 0.03 0.03 0.03 0.04 0.06 0.06 0.06 0.07 0.07 0.06 0.06 0.06 0.07 0.08 0.08 0.09 0.09
0.00 0.00 0.00 0.00 0.00 0.00 0.00 0.00 0.00 0.00 0.00 0.00 0.00 0.00 0.00 0.00 0.01 0.00 0.01 0.02 0.01 0.01 0.01 0.02 0.01 0.02 0.02 0.02 0.04 0.04 0.05 0.03 0.04 0.05 0.04 0.03 0.05 0.05 0.05 0.05 0.06 0.06 0.07 0.08 0.10 0.10 0.09 0.10 0.09
0.00 0.00 0.00 0.00 0.00 0.00 0.00 0.00 0.00 0.00 0.00 0.00 0.00 0.00 0.00 0.00 0.00 0.00 0.00 0.00 0.00 0.00 0.00 0.01 0.01 0.02 0.02 0.03 0.04 0.04 0.05 0.04 0.04 0.04 0.04 0.06 0.06 0.06 0.08 0.05 0.06 0.08 0.08 0.09 0.09 0.09 0.10 0.09 0.07
0.00 0.00 0.00 0.00 0.00 0.00 0.00 0.00 0.00 0.00 0.00 0.00 0.00 0.00 0.00 0.00 0.00 0.00 0.00 0.00 0.00 0.00 0.00 0.00 0.01 0.01 0.01 0.02 0.03 0.04 0.04 0.04 0.04 0.04 0.05 0.06 0.06 0.07 0.08 0.08 0.09 0.10 0.10 0.11 0.11 0.09 0.08 0.07 0.08
0.00 0.00 0.00 0.00 0.00 0.00 0.00 0.00 0.00 0.00 0.00 0.00 0.00 0.00 0.00 0.00 0.00 0.00 0.00 0.00 0.00 0.00 0.00 0.00 0.00 0.00 0.00 0.01 0.03 0.03 0.05 0.04 0.05 0.05 0.06 0.05 0.05 0.06 0.06 0.06 0.08 0.10 0.09 0.09 0.09 0.09 0.09 0.09 0.07
0.00 0.00 0.00 0.00 0.00 0.00 0.00 0.00 0.00 0.00 0.00 0.00 0.00 0.00 0.00 0.00 0.00 0.00 0.00 0.00 0.00 0.00 0.00 0.00 0.00 0.00 0.01 0.01 0.02 0.04 0.04 0.04 0.04 0.03 0.03 0.03 0.03 0.04 0.04 0.04 0.05 0.07 0.08 0.09 0.07 0.07 0.09 0.10 0.10
0.00 0.00 0.00 0.00 0.00 0.00 0.00 0.00 0.00 0.00 0.00 0.00 0.00 0.00 0.00 0.00 0.00 0.00 0.00 0.00 0.00 0.00 0.00 0.00 0.00 0.00 0.01 0.02 0.03 0.04 0.04 0.03 0.02 0.01 0.02 0.04 0.04 0.04 0.04 0.05 0.06 0.07 0.08 0.09 0.09 0.09 0.08 0.08 0.10
0.00 0.00 0.00 0.00 0.00 0.00 0.00 0.00 0.00 0.00 0.00 0.00 0.00 0.00 0.00 0.00 0.00 0.00 0.00 0.00 0.00 0.00 0.00 0.00 0.00 0.01 0.02 0.03 0.03 0.04 0.04 0.03 0.02 0.02 0.02 0.04 0.04 0.04 0.05 0.05 0.05 0.06 0.07 0.08 0.07 0.08 0.08 0.08 0.08
0.00 0.00 0.00 0.00 0.00 0.00 0.00 0.00 0.00 0.00 0.00 0.00 0.00 0.00 0.00 0.00 0.00 0.00 0.00 0.00 0.00 0.00 0.00 0.00 0.00 0.01 0.02 0.03 0.04 0.04 0.03 0.02 0.02 0.02 0.04 0.04 0.05 0.06 0.05 0.05 0.06 0.06 0.05 0.06 0.06 0.05 0.06 0.07 0.07
0.00 0.00 0.00 0.00 0.00 0.00 0.00 0.00 0.00 0.00 0.00 0.00 0.00 0.00 0.00 0.00 0.00 0.00 0.00 0.00 0.00 0.00 0.00 0.00 0.00 0.00 0.01 0.02 0.03 0.02 0.02 0.02 0.02 0.02 0.03 0.02 0.03 0.04 0.04 0.05 0.05 0.04 0.04 0.04 0.05 0.05 0.06 0.06 0.05
0.00 0.00 0.00 0.00 0.00 0.00 0.00 0.00 0.00 0.00 0.00 0.00 0.00 0.00 0.00 0.00 0.00 0.00 0.00 0.00 0.00 0.00 0.00 0.00 0.00 0.00 0.01 0.02 0.03 0.03 0.02 0.02 0.02 0.02 0.01 0.01 0.01 0.01 0.02 0.03 0.05 0.04 0.04 0.04 0.05 0.05 0.05 0.05 0.04
0.00 0.00 0.00 0.00 0.00 0.00 0.00 0.00 0.00 0.00 0.00 0.00 0.00 0.00 0.00 0.00 0.00 0.00 0.00 0.00 0.00 0.00 0.00 0.00 0.00 0.01 0.01 0.01 0.02 0.03 0.04 0.03 0.02 0.02 0.01 0.01 0.01 0.01 0.02 0.02 0.03 0.04 0.04 0.05 0.06 0.05 0.05 0.06 0.05
0.00 0.00 0.00 0.00 0.00 0.00 0.00 0.00 0.00 0.00 0.00 0.00 0.00 0.00 0.00 0.00 0.00 0.00 0.00 0.00 0.00 0.00 0.00 0.00 0.00 0.01 0.01 0.01 0.01 0.01 0.02 0.03 0.02 0.01 0.01 0.01 0.01 0.01 0.02 0.03 0.04 0.07 0.10 0.07 0.06 0.06 0.07 0.07 0.07
0.00 0.00 0.00 0.00 0.00 0.00 0.00 0.00 0.00 0.00 0.00 0.00 0.00 0.00 0.00 0.00 0.00 0.00 0.00 0.00 0.00 0.00 0.00 0.00 0.01 0.01 0.02 0.04 0.03 0.01 0.01 0.01 0.01 0.01 0.00 0.01 0.01 0.02 0.03 0.03 0.02 0.04 0.05 0.07 0.06 0.06 0.07 0.07 0.07
MSLP
1005.07 1005.83 1006.89 1008.13 1009.41 1010.61 1011.59 1012.31 1012.75 1012.97 1013.04 1013.06 1013.11 1013.22 1013.39 1013.59 1013.76 1013.87 1013.89 1013.83 1013.73 1013.62 1013.58 1013.61 1013.73 1013.90 1014.08 1014.21 1014.25 1014.20 1014.07 1013.91 1013.78 1013.72 1013.75 1013.86 1014.02 1014.18 1014.29 1014.31 1014.25 1014.13 1013.99 1013.88 1013.85 1013.89 1014.00 1014.15 1014.28
1005.26 1006.24 1007.49 1008.89 1010.27 1011.49 1012.43 1013.03 1013.32 1013.36 1013.25 1013.13 1013.06 1013.11 1013.26 1013.48 1013.72 1013.91 1014.01 1014.02 1013.97 1013.90 1013.87 1013.90 1014.01 1014.17 1014.33 1014.45 1014.51 1014.48 1014.39 1014.27 1014.18 1014.15 1014.20 1014.30 1014.44 1014.57 1014.64 1014.62 1014.54 1014.41 1014.29 1014.21 1014.21 1014.29 1014.43 1014.58 1014.69
1005.69 1006.87 1008.29 1009.80 1011.22 1012.42 1013.28 1013.76 1013.90 1013.78 1013.54 1013.31 1013.17 1013.18 1013.34 1013.58 1013.86 1014.09 1014.23 1014.27 1014.23 1014.17 1014.14 1014.16 1014.25 1014.40 1014.56 1014.70 1014.78 1014.79 1014.75 1014.68 1014.63 1014.63 1014.68 1014.77 1014.88 1014.96 1014.98 1014.93 1014.82 1014.69 1014.58 1014.53 1014.56 1014.66 1014.81 1014.94 1015.02
1006.32 1007.66 1009.20 1010.76 1012.18 1013.31 1014.06 1014.41 1014.42 1014.20 1013.87 1013.58 1013.42 1013.43 1013.59 1013.85 1014.14 1014.37 1014.50 1014.52 1014.47 1014.39 1014.33 1014.33 1014.42 1014.57 1014.75 1014.92 1015.04 1015.10 1015.11 1015.09 1015.07 1015.08 1015.13 1015.21 1015.28 1015.33 1015.31 1015.24 1015.12 1014.99 1014.90 1014.87 1014.92 1015.03 1015.16 1015.27 1015.30
1007.09 1008.55 1010.13 1011.68 1013.02 1014.04 1014.67 1014.90 1014.82 1014.53 1014.18 1013.89 1013.75 1013.78 1013.96 1014.22 1014.49 1014.69 1014.77 1014.74 1014.64 1014.51 1014.43 1014.42 1014.50 1014.67 1014.88 1015.09 1015.26 1015.36 1015.41 1015.43 1015.43 1015.46 1015.50 1015.56 1015.62 1015.65 1015.62 1015.54 1015.43 1015.33 1015.25 1015.24 1015.30 1015.40 1015.51 1015.58 1015.57
1007.93 1009.42 1010.97 1012.42 1013.63 1014.51 1015.00 1015.14 1014.99 1014.69 1014.37 1014.13 1014.05 1014.14 1014.35 1014.61 1014.85 1014.99 1015.00 1014.91 1014.74 1014.57 1014.45 1014.43 1014.53 1014.72 1014.96 1015.21 1015.41 1015.55 1015.62 1015.66 1015.67 1015.70 1015.74 1015.80 1015.85 1015.88 1015.87 1015.81 1015.73 1015.66 1015.62 1015.62 1015.68 1015.77 1015.84 1015.86 1015.80
1008.73 1010.17 1011.60 1012.89 1013.93 1014.65 1015.01 1015.06 1014.90 1014.64 1014.40 1014.26 1014.28 1014.44 1014.70 1014.96 1015.17 1015.25 1015.19 1015.03 1014.80 1014.59 1014.46 1014.44 1014.55 1014.76 1015.02 1015.28 1015.50 1015.64 1015.72 1015.75 1015.77 1015.79 1015.83 1015.89 1015.95 1016.00 1016.02 1016.01 1015.97 1015.94 1015.93 1015.95 1016.00 1016.06 1016.10 1016.08 1015.97
1009.42 1010.73 1011.99 1013.08 1013.92 1014.46 1014.71 1014.72 1014.57 1014.39 1014.26 1014.26 1014.41 1014.66 1014.97 1015.26 1015.44 1015.48 1015.37 1015.15 1014.88 1014.65 1014.51 1014.49 1014.61 1014.83 1015.09 1015.34 1015.54 1015.67 1015.72 1015.73 1015.72 1015.73 1015.78 1015.85 1015.93 1016.02 1016.08 1016.11 1016.11 1016.12 1016.13 1016.16 1016.20 1016.24 1016.24 1016.18 1016.04
1009.94 1011.09 1012.14 1013.01 1013.66 1014.04 1014.20 1014.19 1014.09 1014.02 1014.03 1014.18 1014.45 1014.81 1015.19 1015.50 1015.68 1015.69 1015.56 1015.32 1015.04 1014.80 1014.66 1014.65 1014.77 1014.97 1015.20 1015.41 1015.57 1015.64 1015.65 1015.62 1015.59 1015.58 1015.62 1015.71 1015.82 1015.93 1016.03 1016.10 1016.14 1016.17 1016.19 1016.22 1016.24 1016.26 1016.23 1016.14 1015.98
1010.31 1011.27 1012.11 1012.78 1013.25 1013.51 1013.61 1013.61 1013.59 1013.63 1013.78 1014.07 1014.47 1014.93 1015.37 1015.71 1015.91 1015.93 1015.79 1015.56 1015.29 1015.07 1014.94 1014.92 1015.02 1015.18 1015.36 1015.50 1015.58 1015.59 1015.53 1015.46 1015.40 1015.39 1015.43 1015.53 1015.66 1015.80 1015.92 1016.01 1016.06 1016.09 1016.11 1016.12 1016.13 1016.12 1016.07 1015.97 1015.80
1010.55 1011.34 1012.00 1012.50 1012.84 1013.02 1013.09 1013.12 1013.18 1013.34 1013.61 1014.02 1014.52 1015.05 1015.53 1015.91 1016.13 1016.17 1016.06 1015.86 1015.63 1015.43 1015.31 1015.29 1015.34 1015.44 1015.54 1015.60 1015.59 1015.52 1015.41 1015.30 1015.22 1015.20 1015.25 1015.36 1015.51 1015.65 1015.78 1015.87 1015.91 1015.93 1015.93 1015.92 1015.91 1015.88 1015.81 1015.70 1015.54
1010.73 1011.39 1011.91 1012.30 1012.54 1012.68 1012.76 1012.84 1012.98 1013.22 1013.58 1014.06 1014.61 1015.18 1015.69 1016.09 1016.33 1016.40 1016.34 1016.19 1016.00 1015.83 1015.72 1015.67 1015.68 1015.70 1015.71 1015.67 1015.58 1015.44 1015.29 1015.15 1015.07 1015.07 1015.13 1015.25 1015.40 1015.55 1015.66 1015.72 1015.74 1015.73 1015.70 1015.67 1015.64 1015.59 1015.53 1015.42 1015.26
1010.93 1011.49 1011.93 1012.24 1012.44 1012.58 1012.68 1012.80 1013.00 1013.29 1013.69 1014.19 1014.75 1015.31 1015.81 1016.21 1016.47 1016.58 1016.56 1016.47 1016.33 1016.19 1016.09 1016.01 1015.96 1015.91 1015.83 1015.71 1015.55 1015.37 1015.19 1015.06 1014.99 1015.01 1015.09 1015.23 1015.38 1015.50 1015.59 1015.62 1015.60 1015.55 1015.49 1015.44 1015.39 1015.35 1015.28 1015.18 1015.03
1011.20 1011.70 1012.09 1012.37 1012.56 1012.71 1012.84 1013.00 1013.22 1013.52 1013.92 1014.38 1014.89 1015.41 1015.87 1016.25 1016.51 1016.65 1016.69 1016.64 1016.56 1016.45 1016.35 1016.25 1016.14 1016.02 1015.87 1015.69 1015.49 1015.29 1015.12 1015.01 1014.98 1015.03 1015.14 1015.29 1015.43 1015.53 1015.59 1015.58 1015.52 1015.44 1015.36 1015.29 1015.24 1015.20 1015.14 1015.05 1014.90
1011.58 1012.04 1012.39 1012.66 1012.86 1013.03 1013.18 1013.35 1013.57 1013.84 1014.18 1014.57 1015.00 1015.44 1015.84 1016.18 1016.45 1016.61 1016.70 1016.71 1016.66 1016.59 1016.48 1016.36 1016.22 1016.04 1015.85 1015.63 1015.42 1015.23 1015.10 1015.03 1015.05 1015.13 1015.27 1015.42 1015.54 1015.62 1015.64 1015.60 1015.52 1015.42 1015.32 1015.25 1015.21 1015.17 1015.12 1015.03 1014.88
1012.04 1012.46 1012.79 1013.05 1013.26 1013.44 1013.60 1013.77 1013.95 1014.17 1014.42 1014.72 1015.05 1015.40 1015.73 1016.04 1016.30 1016.49 1016.62 1016.68 1016.68 1016.63 1016.53 1016.40 1016.23 1016.03 1015.81 1015.59 1015.39 1015.23 1015.15 1015.13 1015.19 1015.31 1015.45 1015.60 1015.70 1015.75 1015.74 1015.67 1015.58 1015.47 1015.38 1015.32 1015.29 1015.26 1015.21 1015.11 1014.96
1012.56 1012.93 1013.24 1013.49 1013.70 1013.88 1014.04 1014.18 1014.32 1014.46 1014.63 1014.82 1015.05 1015.31 1015.59 1015.87 1016.13 1016.35 1016.53 1016.64 1016.68 1016.65 1016.57 1016.43 1016.24 1016.03 1015.82 1015.61 1015.45 1015.34 1015.30 1015.33 1015.42 1015.55 1015.69 1015.82 1015.89 1015.91 1015.87 1015.79 1015.69 1015.60 1015.52 1015.48 1015.46 1015.43 1015.38 1015.27 1015.10
1013.09 1013.40 1013.67 1013.91 1014.12 1014.30 1014.45 1014.56 1014.65 1014.72 1014.80 1014.90 1015.05 1015.24 1015.48 1015.75 1016.03 1016.29 1016.50 1016.66 1016.74 1016.74 1016.67 1016.53 1016.35 1016.14 1015.94 1015.77 1015.64 1015.58 1015.58 1015.64 1015.75 1015.87 1015.99 1016.07 1016.11 1016.09 1016.03 1015.94 1015.85 1015.77 1015.73 1015.70 1015.69 1015.67 1015.60 1015.47 1015.28
1013.57 1013.83 1014.07 1014.31 1014.52 1014.70 1014.84 1014.93 1014.97 1014.98 1014.99 1015.03 1015.11 1015.27 1015.49 1015.76 1016.07 1016.37 1016.63 1016.83 1016.94 1016.96 1016.89 1016.76 1016.58 1016.39 1016.22 1016.08 1016.00 1015.97 1016.01 1016.08 1016.18 1016.28 1016.35 1016.38 1016.36 1016.31 1016.23 1016.14 1016.06 1016.01 1015.99 1015.99 1015.98 1015.94 1015.86 1015.71 1015.49
1013.97 1014.20 1014.44 1014.69 1014.92 1015.11 1015.26 1015.33 1015.34 1015.31 1015.27 1015.25 1015.30 1015.43 1015.66 1015.95 1016.29 1016.63 1016.93 1017.16 1017.30 1017.33 1017.27 1017.13 1016.97 1016.79 1016.64 1016.54 1016.50 1016.51 1016.57 1016.64 1016.72 1016.77 1016.78 1016.75 1016.68 1016.58 1016.48 1016.39 1016.34 1016.31 1016.31 1016.32 1016.31 1016.26 1016.14 1015.96 1015.73
1014.28 1014.52 1014.79 1015.08 1015.35 1015.58 1015.74 1015.81 1015.80 1015.74 1015.66 1015.61 1015.64 1015.77 1016.00 1016.32 1016.69 1017.07 1017.40 1017.65 1017.79 1017.82 1017.75 1017.62 1017.45 1017.30 1017.18 1017.11 1017.10 1017.15 1017.21 1017.28 1017.33 1017.33 1017.29 1017.19 1017.07 1016.93 1016.81 1016.73 1016.68 1016.68 1016.70 1016.71 1016.69 1016.62 1016.47 1016.25 1016.00
1014.53 1014.82 1015.16 1015.51 1015.85 1016.13 1016.32 1016.39 1016.37 1016.28 1016.17 1016.09 1016.10 1016.23 1016.47 1016.81 1017.21 1017.61 1017.95 1018.21 1018.34 1018.36 1018.28 1018.13 1017.97 1017.83 1017.73 1017.70 1017.74 1017.81 1017.89 1017.96 1017.99 1017.95 1017.85 1017.71 1017.54 1017.37 1017.23 1017.14 1017.11 1017.12 1017.14 1017.15 1017.12 1017.01 1016.83 1016.58 1016.31
1014.75 1015.12 1015.55 1016.00 1016.41 1016.75 1016.96 1017.04 1016.99 1016.87 1016.73 1016.62 1016.61 1016.73 1016.97 1017.32 1017.73 1018.14 1018.49 1018.74 1018.86 1018.86 1018.76 1018.60 1018.44 1018.31 1018.24 1018.25 1018.32 1018.43 1018.54 1018.62 1018.64 1018.58 1018.45 1018.26 1018.06 1017.87 1017.71 1017.62 1017.59 1017.60 1017.62 1017.62 1017.57 1017.43 1017.22 1016.94 1016.65
1014.96 1015.44 1015.98 1016.52 1017.00 1017.38 1017.60 1017.67 1017.60 1017.43 1017.24 1017.10 1017.06 1017.16 1017.40 1017.76 1018.17 1018.58 1018.93 1019.16 1019.27 1019.24 1019.13 1018.96 1018.80 1018.68 1018.65 1018.69 1018.81 1018.96 1019.11 1019.21 1019.24 1019.17 1019.03 1018.83 1018.61 1018.40 1018.23 1018.13 1018.09 1018.10 1018.11 1018.09 1018.02 1017.86 1017.61 1017.32 1017.01
1015.19 1015.77 1016.40 1017.01 1017.54 1017.94 1018.16 1018.19 1018.07 1017.85 1017.61 1017.43 1017.36 1017.44 1017.67 1018.02 1018.44 1018.85 1019.20 1019.43 1019.52 1019.49 1019.36 1019.19 1019.03 1018.94 1018.93 1019.02 1019.18 1019.38 1019.57 1019.71 1019.76 1019.71 1019.57 1019.37 1019.14 1018.92 1018.74 1018.63 1018.58 1018.57 1018.57 1018.54 1018.44 1018.26 1018.00 1017.69 1017.37
1015.44 1016.09 1016.77 1017.42 1017.97 1018.35 1018.53 1018.51 1018.33 1018.05 1017.76 1017.53 1017.43 1017.50 1017.73 1018.08 1018.51 1018.93 1019.28 1019.52 1019.62 1019.59 1019.47 1019.31 1019.18 1019.11 1019.13 1019.26 1019.46 1019.70 1019.93 1020.11 1020.19 1020.17 1020.05 1019.86 1019.63 1019.40 1019.22 1019.09 1019.02 1019.00 1018.98 1018.93 1018.82 1018.63 1018.36 1018.04 1017.72
1015.68 1016.36 1017.05 1017.69 1018.21 1018.54 1018.66 1018.57 1018.33 1017.99 1017.65 1017.39 1017.28 1017.33 1017.57 1017.93 1018.38 1018.82 1019.20 1019.46 1019.59 1019.59 1019.49 1019.37 1019.26 1019.22 1019.28 1019.44 1019.67 1019.95 1020.22 1020.43 1020.54 1020.55 1020.45 1020.28 1020.06 1019.84 1019.64 1019.50 1019.42 1019.37 1019.33 1019.27 1019.15 1018.96 1018.70 1018.38 1018.06
1015.90 1016.55 1017.21 1017.79 1018.23 1018.49 1018.53 1018.37 1018.07 1017.69 1017.32 1017.04 1016.92 1016.99 1017.24 1017.63 1018.10 1018.57 1018.99 1019.29 1019.46 1019.51 1019.47 1019.39 1019.33 1019.33 1019.42 1019.61 1019.87 1020.17 1020.46 1020.69 1020.83 1020.87 1020.80 1020.64 1020.44 1020.22 1020.03 1019.88 1019.78 1019.72 1019.66 1019.59 1019.47 1019.29 1019.04 1018.74 1018.43
1016.06 1016.65 1017.22 1017.71 1018.06 1018.22 1018.19 1017.97 1017.62 1017.22 1016.84 1016.57 1016.46 1016.54 1016.80 1017.22 1017.71 1018.22 1018.68 1019.03 1019.26 1019.38 1019.41 1019.40 1019.39 1019.44 1019.57 1019.79 1020.06 1020.37 1020.67 1020.92 1021.08 1021.14 1021.09 1020.97 1020.79 1020.59 1020.41 1020.26 1020.15 1020.07 1020.01 1019.94 1019.83 1019.66 1019.43 1019.16 1018.86
1016.15 1016.65 1017.12 1017.50 1017.75 1017.82 1017.72 1017.47 1017.10 1016.69 1016.33 1016.07 1015.98 1016.08 1016.35 1016.76 1017.27 1017.79 1018.28 1018.68 1018.98 1019.17 1019.28 1019.35 1019.42 1019.53 1019.70 1019.95 1020.24 1020.56 1020.87 1021.12 1021.30 1021.38 1021.36 1021.27 1021.13 1020.96 1020.80 1020.66 1020.56 1020.48 1020.42 1020.35 1020.25 1020.10 1019.91 1019.67 1019.40
Thickness
5841 5844 5845 5840 5824 5801 5782 5784 5789 5783 5781 5785 5786 5782 5772 5765 5760 5745 5760 5768 5768 5768 5765 5761 5759 5759 5759 5758 5758 5758 5758 5758 5758 5758 5757 5758 5757 5757 5757 5757 5757 5756 5755 5755 5754 5753 5753 5752 5751
5852 5850 5845 5839 5813 5784 5775 5786 5783 5781 5785 5788 5786 5782 5773 5764 5767 5763 5764 5766 5768 5767 5765 5761 5757 5757 5757 5757 5757 5756 5756 5756 5756 5756 5756 5756 5755 5755 5755 5755 5755 5754 5753 5753 5752 5752 5751 5750 5749
5855 5854 5844 5830 5803 5786 5777 5786 5784 5786 5791 5788 5782 5780 5772 5763 5765 5766 5766 5768 5768 5767 5764 5758 5756 5755 5755 5755 5755 5754 5754 5754 5754 5754 5754 5754 5753 5753 5753 5753 5753 5752 5752 5751 5751 5750 5750 5749 5748
5858 5852 5845 5819 5793 5793 5792 5791 5791 5787 5787 5789 5784 5773 5770 5770 5771 5769 5768 5769 5768 5767 5764 5757 5754 5754 5754 5754 5753 5753 5752 5752 5752 5752 5752 5752 5752 5752 5751 5751 5751 5751 5750 5750 5749 5749 5748 5747 5747
5861 5849 5825 5805 5795 5797 5800 5799 5799 5789 5785 5785 5783 5769 5762 5768 5773 5771 5769 5769 5768 5766 5763 5757 5753 5752 5752 5752 5752 5751 5751 5751 5750 5750 5750 5750 5750 5750 5750 5750 5749 5749 5749 5749 5748 5748 5748 5747 5746
5855 5848 5816 5797 5793 5799 5802 5804 5800 5790 5785 5785 5782 5770 5761 5769 5770 5770 5770 5769 5769 5766 5762 5756 5752 5751 5751 5750 5750 5750 5750 5750 5749 5749 5749 5749 5749 5749 5749 5749 5749 5749 5749 5748 5748 5747 5747 5746 5746
5849 5837 5815 5806 5798 5796 5800 5807 5800 5792 5786 5786 5788 5773 5764 5767 5770 5771 5769 5769 5768 5765 5762 5759 5756 5752 5750 5749 5749 5749 5749 5749 5749 5748 5748 5748 5748 5748 5748 5748 5748 5748 5747 5747 5747 5747 5746 5746 5746
5861 5844 5820 5813 5803 5798 5807 5807 5805 5798 5788 5795 5793 5776 5766 5769 5773 5772 5769 5767 5765 5763 5762 5759 5756 5754 5754 5752 5749 5749 5749 5749 5748 5748 5748 5748 5748 5748 5748 5748 5748 5747 5747 5747 5747 5746 5746 5746 5746
5865 5838 5816 5815 5810 5805 5811 5805 5805 5808 5797 5793 5793 5789 5782 5778 5776 5771 5767 5765 5762 5761 5760 5760 5758 5756 5755 5755 5751 5750 5749 5749 5749 5749 5748 5750 5752 5752 5751 5749 5747 5747 5747 5747 5747 5747 5746 5746 5746
5858 5830 5821 5828 5828 5819 5814 5810 5806 5802 5791 5787 5785 5785 5783 5778 5774 5769 5766 5764 5762 5760 5760 5760 5759 5758 5757 5756 5753 5753 5753 5751 5752 5751 5751 5752 5751 5751 5751 5747 5747 5747 5747 5747 5747 5748 5748 5750 5753
5852 5833 5832 5833 5834 5829 5818 5813 5814 5804 5791 5791 5785 5781 5780 5777 5773 5770 5768 5767 5764 5763 5762 5761 5758 5757 5758 5757 5756 5755 5754 5753 5753 5752 5751 5751 5752 5753 5752 5751 5750 5749 5750 5751 5750 5752 5754 5756 5756
5847 5841 5840 5836 5836 5830 5821 5817 5811 5807 5802 5805 5799 5791 5784 5778 5775 5772 5769 5767 5766 5764 5763 5762 5760 5757 5756 5757 5757 5756 5757 5756 5755 5753 5753 5753 5753 5752 5752 5752 5752 5752 5753 5752 5754 5753 5754 5754 5755
5843 5839 5841 5839 5837 5832 5826 5818 5812 5806 5810 5809 5801 5792 5786 5783 5779 5777 5775 5772 5769 5765 5764 5763 5760 5759 5757 5756 5756 5758 5757 5757 5756 5754 5754 5753 5754 5753 5753 5752 5751 5753 5754 5754 5753 5754 5753 5754 5754
5847 5843 5840 5838 5834 5831 5822 5817 5814 5806 5811 5805 5798 5792 5790 5787 5783 5780 5776 5773 5770 5768 5767 5765 5762 5760 5758 5757 5756 5757 5757 5755 5757 5756 5755 5753 5754 5753 5753 5753 5752 5753 5753 5754 5753 5754 5753 5754 5754
5852 5840 5834 5835 5834 5831 5826 5810 5811 5813 5812 5802 5798 5795 5792 5790 5787 5783 5780 5776 5775 5772 5770 5767 5764 5762 5759 5758 5758 5759 5759 5758 5758 5757 5755 5754 5754 5753 5754 5755 5754 5753 5753 5752 5752 5753 5754 5754 5754
5847 5836 5825 5830 5835 5833 5825 5804 5813 5818 5811 5802 5800 5797 5793 5792 5790 5788 5785 5781 5779 5776 5772 5769 5769 5765 5762 5760 5758 5760 5760 5759 5759 5758 5757 5755 5754 5754 5754 5755 5755 5753 5753 5754 5753 5754 5754 5754 5753
5835 5827 5824 5826 5836 5834 5827 5815 5817 5821 5814 5806 5802 5800 5797 5794 5793 5792 5790 5787 5783 5779 5774 5771 5770 5767 5765 5763 5761 5761 5760 5759 5759 5759 5759 5757 5755 5755 5755 5755 5755 5754 5754 5754 5755 5754 5753 5752 5751
5828 5829 5827 5826 5834 5831 5825 5822 5822 5822 5818 5812 5808 5805 5801 5798 5796 5797 5794 5791 5787 5782 5778 5774 5772 5769 5767 5765 5763 5762 5761 5761 5761 5760 5758 5758 5757 5756 5756 5757 5756 5756 5755 5754 5753 5751 5751 5750 5750
5841 5834 5828 5830 5839 5831 5824 5823 5825 5824 5820 5816 5813 5810 5806 5804 5805 5803 5798 5795 5790 5785 5781 5777 5774 5771 5769 5767 5765 5763 5762 5763 5762 5762 5760 5758 5757 5757 5756 5758 5756 5756 5756 5754 5753 5752 5750 5750 5750
5837 5829 5828 5828 5836 5831 5826 5825 5832 5829 5825 5824 5820 5816 5813 5810 5807 5804 5801 5798 5793 5788 5784 5781 5777 5775 5772 5770 5767 5765 5764 5764 5764 5763 5760 5759 5758 5756 5758 5755 5757 5756 5754 5753 5752 5750 5750 5750 5751
5831 5830 5829 5826 5829 5833 5827 5822 5826 5831 5832 5831 5828 5826 5823 5818 5812 5808 5804 5801 5798 5793 5789 5787 5782 5779 5775 5773 5771 5768 5764 5763 5763 5762 5761 5760 5758 5757 5756 5756 5756 5755 5755 5753 5751 5751 5749 5748 5750
5822 5838 5836 5829 5822 5822 5824 5813 5826 5832 5828 5829 5830 5830 5828 5826 5821 5816 5811 5806 5803 5799 5796 5790 5785 5781 5778 5775 5773 5769 5764 5762 5762 5762 5762 5760 5758 5757 5756 5755 5755 5755 5755 5753 5753 5753 5752 5749 5748
5831 5838 5834 5830 5825 5822 5824 5818 5828 5834 5827 5832 5835 5835 5835 5833 5829 5823 5819 5813 5809 5806 5801 5795 5789 5784 5781 5777 5774 5770 5767 5766 5766 5763 5761 5759 5760 5757 5756 5755 5755 5754 5754 5753 5752 5751 5751 5750 5748
5832 5828 5824 5826 5825 5805 5817 5813 5818 5837 5835 5840 5842 5841 5839 5838 5834 5829 5825 5819 5814 5810 5805 5800 5792 5787 5783 5779 5776 5772 5769 5766 5764 5761 5760 5760 5760 5758 5756 5755 5754 5753 5753 5752 5751 5750 5749 5748 5747
5826 5814 5798 5794 5797 5802 5820 5813 5823 5843 5848 5846 5844 5844 5844 5842 5837 5831 5826 5821 5816 5812 5808 5803 5796 5789 5786 5782 5778 5774 5771 5767 5764 5762 5761 5760 5760 5758 5756 5755 5753 5752 5750 5750 5750 5749 5748 5747 5745
5820 5821 5801 5788 5793 5808 5811 5810 5833 5849 5852 5853 5851 5849 5847 5844 5840 5835 5830 5825 5821 5816 5811 5806 5798 5792 5788 5784 5780 5776 5772 5770 5768 5764 5764 5761 5760 5758 5756 5753 5751 5750 5749 5749 5747 5748 5746 5745 5743
5813 5817 5831 5815 5808 5803 5813 5820 5835 5846 5846 5848 5848 5847 5844 5843 5841 5837 5834 5829 5825 5819 5814 5809 5801 5794 5790 5786 5781 5777 5774 5770 5768 5765 5763 5762 5758 5757 5754 5752 5750 5748 5747 5745 5744 5744 5742 5741 5741
5826 5824 5814 5806 5787 5786 5801 5809 5820 5831 5837 5842 5844 5844 5844 5843 5841 5838 5835 5830 5826 5822 5816 5810 5804 5796 5792 5787 5783 5779 5775 5771 5767 5765 5761 5758 5756 5754 5751 5749 5748 5746 5743 5742 5741 5740 5739 5737 5736
5807 5810 5812 5810 5807 5794 5791 5810 5842 5839 5841 5842 5844 5845 5844 5842 5840 5837 5834 5831 5826 5821 5816 5809 5803 5797 5792 5788 5783 5779 5775 5771 5767 5763 5760 5757 5754 5751 5749 5746 5744 5742 5739 5738 5737 5736 5735 5733 5732
5815 5813 5809 5795 5791 5801 5803 5816 5846 5844 5846 5845 5845 5845 5844 5842 5841 5837 5833 5829 5824 5818 5814 5808 5803 5798 5792 5788 5783 5778 5774 5770 5766 5762 5759 5756 5752 5749 5746 5744 5741 5739 5736 5735 5734 5733 5732 5730 5728